TimeEST,TemperatureF,Dew PointF,Humidity,Sea Level PressureIn,VisibilityMPH,Wind Direction,Wind SpeedMPH,Gust SpeedMPH,PrecipitationIn,Events,Conditions,WindDirDegrees,DateUTC
12:52 AM,28.0,23.0,81,30.67,9.0,Calm,Calm,-,N/A,,Clear,0,2012-11-18 05:52:00
1:52 AM,28.0,24.1,85,30.67,7.0,Calm,Calm,-,N/A,,Clear,0,2012-11-18 06:52:00
2:52 AM,27.0,23.0,85,30.66,7.0,Calm,Calm,-,N/A,,Clear,0,2012-11-18 07:52:00
3:52 AM,26.1,21.0,81,30.67,7.0,Calm,Calm,-,N/A,,Clear,0,2012-11-18 08:52:00
4:52 AM,24.1,21.0,88,30.69,7.0,Calm,Calm,-,N/A,,Clear,0,2012-11-18 09:52:00
5:52 AM,25.0,21.0,85,30.70,8.0,Calm,Calm,-,N/A,,Clear,0,2012-11-18 10:52:00
6:52 AM,25.0,19.9,81,30.72,7.0,NNE,3.5,-,N/A,,Partly Cloudy,20,2012-11-18 11:52:00
7:52 AM,28.9,25.0,85,30.71,7.0,Calm,Calm,-,N/A,,Clear,0,2012-11-18 12:52:00
8:52 AM,35.1,27.0,72,30.71,10.0,Calm,Calm,-,N/A,,Clear,0,2012-11-18 13:52:00
9:52 AM,43.0,28.9,58,30.71,10.0,North,4.6,-,N/A,,Clear,10,2012-11-18 14:52:00
10:52 AM,46.9,30.0,52,30.69,10.0,NE,11.5,-,N/A,,Clear,50,2012-11-18 15:52:00
11:52 AM,48.9,30.0,48,30.66,10.0,East,8.1,-,N/A,,Clear,80,2012-11-18 16:52:00
12:52 PM,50.0,28.0,43,30.65,10.0,ENE,5.8,-,N/A,,Clear,70,2012-11-18 17:52:00
1:52 PM,50.0,28.0,43,30.63,10.0,NE,4.6,-,N/A,,Clear,40,2012-11-18 18:52:00
2:52 PM,50.0,28.0,43,30.62,10.0,NNE,10.4,-,N/A,,Clear,30,2012-11-18 19:52:00
3:52 PM,48.0,27.0,44,30.63,10.0,ENE,6.9,-,N/A,,Clear,60,2012-11-18 20:52:00
4:52 PM,44.1,28.0,53,30.63,10.0,ENE,3.5,-,N/A,,Clear,60,2012-11-18 21:52:00
5:52 PM,41.0,28.0,60,30.65,10.0,NE,4.6,-,N/A,,Clear,50,2012-11-18 22:52:00
6:52 PM,39.0,26.1,60,30.64,10.0,NE,3.5,-,N/A,,Clear,50,2012-11-18 23:52:00
7:52 PM,37.0,26.1,65,30.65,10.0,North,3.5,-,N/A,,Clear,10,2012-11-19 00:52:00
8:52 PM,34.0,26.1,73,30.65,10.0,Calm,Calm,-,N/A,,Clear,0,2012-11-19 01:52:00
9:52 PM,33.1,27.0,78,30.64,10.0,NE,4.6,-,N/A,,Clear,50,2012-11-19 02:52:00
10:52 PM,30.9,26.1,82,30.63,10.0,NE,3.5,-,N/A,,Clear,40,2012-11-19 03:52:00
11:52 PM,28.0,23.0,81,30.63,10.0,Calm,Calm,-,N/A,,Clear,0,2012-11-19 04:52:00